Time,TemperatureF,DewpointF,PressureIn,WindDirection,WindDirectionDegrees,WindSpeedMPH,WindSpeedGustMPH,Humidity,HourlyPrecipIn,Conditions,Clouds,dailyrainin,SoftwareType,DateUTC
2013-01-20 00:00:00,33.7,30.0,-100.00,NNW,337,0.0,0.0,86,0.00,n/a,n/a,-99.99,Henriksen +1-Wire,2013-01-20 05:00:00,
2013-01-20 00:10:00,33.7,30.0,-100.00,NNW,337,0.0,0.0,86,0.00,n/a,n/a,-99.99,Henriksen +1-Wire,2013-01-20 05:10:00,
2013-01-20 00:20:00,33.7,30.0,-100.00,NNW,337,0.0,0.0,86,0.00,n/a,n/a,-99.99,Henriksen +1-Wire,2013-01-20 05:20:00,
2013-01-20 00:30:00,33.7,30.0,-100.00,NNW,337,0.0,0.0,86,0.00,n/a,n/a,-99.99,Henriksen +1-Wire,2013-01-20 05:30:00,
2013-01-20 00:40:00,33.7,30.0,-100.00,NNW,337,0.0,0.0,86,0.00,n/a,n/a,-99.99,Henriksen +1-Wire,2013-01-20 05:40:00,
2013-01-20 00:50:00,33.7,30.0,-100.00,NNW,337,0.0,0.0,86,0.00,n/a,n/a,-99.99,Henriksen +1-Wire,2013-01-20 05:50:00,
2013-01-20 01:00:00,33.7,30.0,-100.00,NNW,337,0.0,0.0,86,0.00,n/a,n/a,-99.99,Henriksen +1-Wire,2013-01-20 06:00:00,
2013-01-20 01:10:00,33.7,30.0,-100.00,NNW,337,0.0,0.0,86,0.00,n/a,n/a,-99.99,Henriksen +1-Wire,2013-01-20 06:10:00,
2013-01-20 01:20:00,33.7,30.0,-100.00,NNW,337,0.0,0.0,86,0.00,n/a,n/a,-99.99,Henriksen +1-Wire,2013-01-20 06:20:00,
2013-01-20 01:30:00,33.7,30.0,-100.00,NNW,337,0.0,0.0,86,0.00,n/a,n/a,-99.99,Henriksen +1-Wire,2013-01-20 06:30:00,
2013-01-20 01:40:00,33.7,30.0,-100.00,NNW,337,0.0,0.0,86,0.00,n/a,n/a,-99.99,Henriksen +1-Wire,2013-01-20 06:40:00,
2013-01-20 01:50:00,33.7,30.0,-100.00,NNW,337,0.0,0.0,86,0.00,n/a,n/a,-99.99,Henriksen +1-Wire,2013-01-20 06:50:00,
2013-01-20 02:00:00,33.7,30.0,-100.00,NNW,337,0.0,0.0,86,0.00,n/a,n/a,-99.99,Henriksen +1-Wire,2013-01-20 07:00:00,
2013-01-20 02:10:00,33.7,30.0,-100.00,NNW,337,0.0,0.0,86,0.00,n/a,n/a,-99.99,Henriksen +1-Wire,2013-01-20 07:10:00,
2013-01-20 02:20:00,33.7,30.0,-100.00,NNW,337,0.0,0.0,86,0.00,n/a,n/a,-99.99,Henriksen +1-Wire,2013-01-20 07:20:00,
2013-01-20 02:30:00,33.7,30.0,-100.00,NNW,337,0.0,0.0,86,0.00,n/a,n/a,-99.99,Henriksen +1-Wire,2013-01-20 07:30:00,
2013-01-20 02:40:00,33.7,30.0,-100.00,NNW,337,0.0,0.0,86,0.00,n/a,n/a,-99.99,Henriksen +1-Wire,2013-01-20 07:40:00,
2013-01-20 02:50:00,33.7,30.0,-100.00,NNW,337,0.0,0.0,86,0.00,n/a,n/a,-99.99,Henriksen +1-Wire,2013-01-20 07:50:00,
2013-01-20 03:00:00,33.7,30.0,-100.00,NNW,337,0.0,0.0,86,0.00,n/a,n/a,-99.99,Henriksen +1-Wire,2013-01-20 08:00:00,
2013-01-20 03:10:00,33.7,30.0,-100.00,NNW,337,0.0,0.0,86,0.00,n/a,n/a,-99.99,Henriksen +1-Wire,2013-01-20 08:10:00,
2013-01-20 03:20:00,33.7,30.0,-100.00,NNW,337,0.0,0.0,86,0.00,n/a,n/a,-99.99,Henriksen +1-Wire,2013-01-20 08:20:00,
2013-01-20 03:30:00,33.7,30.0,-100.00,NNW,337,0.0,0.0,86,0.00,n/a,n/a,-99.99,Henriksen +1-Wire,2013-01-20 08:30:00,
2013-01-20 03:40:00,33.7,30.0,-100.00,NNW,337,0.0,0.0,86,0.00,n/a,n/a,-99.99,Henriksen +1-Wire,2013-01-20 08:40:00,
2013-01-20 03:50:00,33.7,30.0,-100.00,NNW,337,0.0,0.0,86,0.00,n/a,n/a,-99.99,Henriksen +1-Wire,2013-01-20 08:50:00,
2013-01-20 04:00:00,33.7,30.0,-100.00,NNW,337,0.0,0.0,86,0.00,n/a,n/a,-99.99,Henriksen +1-Wire,2013-01-20 09:00:00,
2013-01-20 04:10:00,33.7,30.0,-100.00,NNW,337,0.0,0.0,86,0.00,n/a,n/a,-99.99,Henriksen +1-Wire,2013-01-20 09:10:00,
2013-01-20 04:20:00,33.7,30.0,-100.00,NNW,337,0.0,0.0,86,0.00,n/a,n/a,-99.99,Henriksen +1-Wire,2013-01-20 09:20:00,
2013-01-20 04:30:00,33.7,30.0,-100.00,NNW,337,0.0,0.0,86,0.01,n/a,n/a,-99.99,Henriksen +1-Wire,2013-01-20 09:30:00,
2013-01-20 04:40:00,33.7,30.0,-100.00,NNW,330,0.7,4.2,86,0.01,n/a,n/a,-99.99,Henriksen +1-Wire,2013-01-20 09:40:00,
2013-01-20 04:50:00,33.7,30.0,-100.00,WNW,292,0.6,3.1,86,0.01,n/a,n/a,-99.99,Henriksen +1-Wire,2013-01-20 09:50:00,
2013-01-20 05:00:00,33.7,30.0,-100.00,WNW,292,0.6,3.1,86,0.01,n/a,n/a,-99.99,Henriksen +1-Wire,2013-01-20 10:00:00,
2013-01-20 05:10:00,33.7,30.0,-100.00,WNW,292,0.0,2.1,86,0.01,n/a,n/a,-99.99,Henriksen +1-Wire,2013-01-20 10:10:00,
2013-01-20 05:20:00,33.7,30.0,-100.00,WNW,292,0.0,0.0,86,0.01,n/a,n/a,-99.99,Henriksen +1-Wire,2013-01-20 10:20:00,
2013-01-20 05:30:00,33.7,30.0,-100.00,WNW,292,0.0,0.0,86,0.00,n/a,n/a,-99.99,Henriksen +1-Wire,2013-01-20 10:30:00,
2013-01-20 05:40:00,33.7,30.0,-100.00,WNW,292,0.0,0.0,86,0.00,n/a,n/a,-99.99,Henriksen +1-Wire,2013-01-20 10:40:00,
2013-01-20 05:50:00,33.7,30.0,-100.00,WNW,292,0.0,0.0,86,0.00,n/a,n/a,-99.99,Henriksen +1-Wire,2013-01-20 10:50:00,
2013-01-20 06:00:00,33.7,30.0,-100.00,NNE,15,0.3,3.1,86,0.00,n/a,n/a,-99.99,Henriksen +1-Wire,2013-01-20 11:00:00,
2013-01-20 06:10:00,33.7,30.0,-100.00,WNW,293,0.0,3.1,86,0.00,n/a,n/a,-99.99,Henriksen +1-Wire,2013-01-20 11:10:00,
2013-01-20 06:20:00,33.7,30.0,-100.00,WNW,292,0.6,2.1,86,0.00,n/a,n/a,-99.99,Henriksen +1-Wire,2013-01-20 11:20:00,
2013-01-20 06:30:00,33.7,30.0,-100.00,WNW,292,0.0,4.2,86,0.00,n/a,n/a,-99.99,Henriksen +1-Wire,2013-01-20 11:30:00,
2013-01-20 06:40:00,33.7,30.0,-100.00,WNW,292,0.0,0.0,86,0.00,n/a,n/a,-99.99,Henriksen +1-Wire,2013-01-20 11:40:00,
2013-01-20 06:50:00,33.7,30.0,-100.00,WNW,292,0.0,0.0,86,0.00,n/a,n/a,-99.99,Henriksen +1-Wire,2013-01-20 11:50:00,
2013-01-20 07:00:00,33.7,30.0,-100.00,WNW,292,0.0,3.2,86,0.00,n/a,n/a,-99.99,Henriksen +1-Wire,2013-01-20 12:00:00,
2013-01-20 07:10:00,33.7,30.0,-100.00,WNW,292,0.0,0.0,86,0.00,n/a,n/a,-99.99,Henriksen +1-Wire,2013-01-20 12:10:00,
2013-01-20 07:20:00,33.7,30.0,-100.00,West,279,1.0,3.1,86,0.00,n/a,n/a,-99.99,Henriksen +1-Wire,2013-01-20 12:20:00,
2013-01-20 07:30:00,33.7,30.0,-100.00,WSW,247,0.6,3.1,86,0.00,n/a,n/a,-99.99,Henriksen +1-Wire,2013-01-20 12:30:00,
2013-01-20 07:40:00,33.7,30.0,-100.00,South,189,0.7,7.2,86,0.00,n/a,n/a,-99.99,Henriksen +1-Wire,2013-01-20 12:40:00,
2013-01-20 07:50:00,33.7,30.0,-100.00,SE,131,1.9,9.3,86,0.00,n/a,n/a,-99.99,Henriksen +1-Wire,2013-01-20 12:50:00,
2013-01-20 08:00:00,33.7,30.0,-100.00,NW,312,1.8,6.2,86,0.00,n/a,n/a,-99.99,Henriksen +1-Wire,2013-01-20 13:00:00,
2013-01-20 08:10:00,33.7,30.0,-100.00,West,259,0.6,7.3,86,0.00,n/a,n/a,-99.99,Henriksen +1-Wire,2013-01-20 13:10:00,
2013-01-20 08:20:00,33.7,30.0,-100.00,WSW,251,3.0,9.3,86,0.00,n/a,n/a,-99.99,Henriksen +1-Wire,2013-01-20 13:20:00,
2013-01-20 08:30:00,33.7,30.0,-100.00,WSW,248,2.1,10.3,86,0.00,n/a,n/a,-99.99,Henriksen +1-Wire,2013-01-20 13:30:00,
2013-01-20 08:40:00,33.7,30.0,-100.00,West,263,2.4,12.5,86,0.00,n/a,n/a,-99.99,Henriksen +1-Wire,2013-01-20 13:40:00,
2013-01-20 08:50:00,33.7,30.0,-100.00,WSW,252,4.5,12.3,86,0.00,n/a,n/a,-99.99,Henriksen +1-Wire,2013-01-20 13:50:00,
2013-01-20 09:00:00,33.7,30.0,-100.00,WSW,246,3.2,13.4,86,0.00,n/a,n/a,-99.99,Henriksen +1-Wire,2013-01-20 14:00:00,
2013-01-20 09:10:00,33.7,30.0,-100.00,WSW,258,2.3,9.3,86,0.00,n/a,n/a,-99.99,Henriksen +1-Wire,2013-01-20 14:10:00,
2013-01-20 09:20:00,33.7,30.0,-100.00,WSW,252,3.5,12.5,86,0.00,n/a,n/a,-99.99,Henriksen +1-Wire,2013-01-20 14:20:00,
2013-01-20 09:30:00,33.7,30.0,-100.00,West,264,4.2,16.3,86,0.01,n/a,n/a,-99.99,Henriksen +1-Wire,2013-01-20 14:30:00,
2013-01-20 09:40:00,33.7,30.0,-100.00,WSW,254,4.9,13.5,86,0.01,n/a,n/a,-99.99,Henriksen +1-Wire,2013-01-20 14:40:00,
2013-01-20 09:50:00,33.7,30.0,-100.00,WNW,301,4.0,9.3,86,0.02,n/a,n/a,-99.99,Henriksen +1-Wire,2013-01-20 14:50:00,
2013-01-20 10:00:00,33.7,30.0,-100.00,WSW,256,4.7,13.5,86,0.03,n/a,n/a,-99.99,Henriksen +1-Wire,2013-01-20 15:00:00,
2013-01-20 10:10:00,33.7,30.0,-100.00,WNW,297,0.8,9.3,86,0.04,n/a,n/a,-99.99,Henriksen +1-Wire,2013-01-20 15:10:00,
2013-01-20 10:20:00,33.7,30.0,-100.00,West,264,1.6,11.4,86,0.04,n/a,n/a,-99.99,Henriksen +1-Wire,2013-01-20 15:20:00,
2013-01-20 10:30:00,33.7,30.0,-100.00,West,275,4.3,9.3,86,0.05,n/a,n/a,-99.99,Henriksen +1-Wire,2013-01-20 15:30:00,
2013-01-20 10:40:00,33.7,30.0,-100.00,West,265,3.9,12.5,86,0.05,n/a,n/a,-99.99,Henriksen +1-Wire,2013-01-20 15:40:00,
2013-01-20 10:50:00,33.7,30.0,-100.00,West,276,4.5,11.4,86,0.05,n/a,n/a,-99.99,Henriksen +1-Wire,2013-01-20 15:50:00,
2013-01-20 11:00:00,33.7,30.0,-100.00,West,263,8.3,14.5,86,0.05,n/a,n/a,-99.99,Henriksen +1-Wire,2013-01-20 16:00:00,
2013-01-20 11:10:00,33.7,30.0,-100.00,West,268,4.3,16.6,86,0.06,n/a,n/a,-99.99,Henriksen +1-Wire,2013-01-20 16:10:00,
2013-01-20 11:20:00,33.7,30.0,-100.00,WNW,297,5.0,14.4,86,0.06,n/a,n/a,-99.99,Henriksen +1-Wire,2013-01-20 16:20:00,
2013-01-20 11:30:00,33.7,30.0,-100.00,NW,305,3.3,9.3,86,0.06,n/a,n/a,-99.99,Henriksen +1-Wire,2013-01-20 16:30:00,
2013-01-20 11:40:00,33.7,30.0,-100.00,WNW,296,5.9,13.4,86,0.06,n/a,n/a,-99.99,Henriksen +1-Wire,2013-01-20 16:40:00,
2013-01-20 11:50:00,33.7,30.0,-100.00,West,262,4.9,17.7,86,0.07,n/a,n/a,-99.99,Henriksen +1-Wire,2013-01-20 16:50:00,
2013-01-20 12:00:00,33.7,30.0,-100.00,WNW,284,4.5,15.4,86,0.07,n/a,n/a,-99.99,Henriksen +1-Wire,2013-01-20 17:00:00,
2013-01-20 12:10:00,33.7,30.0,-100.00,WNW,294,7.0,14.5,86,0.07,n/a,n/a,-99.99,Henriksen +1-Wire,2013-01-20 17:10:00,
2013-01-20 12:20:00,33.7,30.0,-100.00,WNW,289,6.5,17.5,86,0.06,n/a,n/a,-99.99,Henriksen +1-Wire,2013-01-20 17:20:00,
2013-01-20 12:30:00,33.7,30.0,-100.00,West,278,5.4,20.6,86,0.06,n/a,n/a,-99.99,Henriksen +1-Wire,2013-01-20 17:30:00,
2013-01-20 12:40:00,33.7,30.0,-100.00,WNW,286,4.9,18.7,86,0.05,n/a,n/a,-99.99,Henriksen +1-Wire,2013-01-20 17:40:00,
2013-01-20 12:50:00,33.7,30.0,-100.00,West,270,3.1,11.5,86,0.04,n/a,n/a,-99.99,Henriksen +1-Wire,2013-01-20 17:50:00,
2013-01-20 13:00:00,33.7,30.0,-100.00,WNW,301,4.4,13.5,86,0.03,n/a,n/a,-99.99,Henriksen +1-Wire,2013-01-20 18:00:00,
2013-01-20 13:10:00,33.7,30.0,-100.00,West,272,3.5,16.6,86,0.02,n/a,n/a,-99.99,Henriksen +1-Wire,2013-01-20 18:10:00,
2013-01-20 13:20:00,33.7,30.0,-100.00,WNW,290,7.0,17.7,86,0.03,n/a,n/a,-99.99,Henriksen +1-Wire,2013-01-20 18:20:00,
2013-01-20 13:30:00,33.7,30.0,-100.00,WNW,291,4.1,16.6,86,0.02,n/a,n/a,-99.99,Henriksen +1-Wire,2013-01-20 18:30:00,
2013-01-20 13:40:00,33.7,30.0,-100.00,WNW,293,4.9,14.5,86,0.01,n/a,n/a,-99.99,Henriksen +1-Wire,2013-01-20 18:40:00,
2013-01-20 13:50:00,33.7,30.0,-100.00,WNW,292,5.9,18.8,86,0.01,n/a,n/a,-99.99,Henriksen +1-Wire,2013-01-20 18:50:00,
2013-01-20 14:00:00,33.7,30.0,-100.00,WNW,286,4.5,23.9,86,0.01,n/a,n/a,-99.99,Henriksen +1-Wire,2013-01-20 19:00:00,
2013-01-20 14:10:00,33.7,30.0,-100.00,WNW,298,5.7,13.5,86,0.01,n/a,n/a,-99.99,Henriksen +1-Wire,2013-01-20 19:10:00,
2013-01-20 14:20:00,33.7,30.0,-100.00,WNW,300,0.8,12.3,86,0.00,n/a,n/a,-99.99,Henriksen +1-Wire,2013-01-20 19:20:00,
2013-01-20 14:30:00,33.7,30.0,-100.00,WNW,294,1.6,13.5,86,0.00,n/a,n/a,-99.99,Henriksen +1-Wire,2013-01-20 19:30:00,
2013-01-20 14:40:00,33.7,30.0,-100.00,WNW,295,2.4,10.5,86,0.00,n/a,n/a,-99.99,Henriksen +1-Wire,2013-01-20 19:40:00,
2013-01-20 14:50:00,33.7,30.0,-100.00,WNW,302,1.6,10.5,86,0.00,n/a,n/a,-99.99,Henriksen +1-Wire,2013-01-20 19:50:00,
2013-01-20 15:00:00,33.7,30.0,-100.00,WNW,289,4.5,11.4,86,0.00,n/a,n/a,-99.99,Henriksen +1-Wire,2013-01-20 20:00:00,
2013-01-20 15:10:00,33.7,30.0,-100.00,West,268,2.9,14.7,86,0.00,n/a,n/a,-99.99,Henriksen +1-Wire,2013-01-20 20:10:00,
2013-01-20 15:20:00,33.7,30.0,-100.00,WNW,291,5.9,24.9,86,0.00,n/a,n/a,-99.99,Henriksen +1-Wire,2013-01-20 20:20:00,
2013-01-20 15:30:00,33.7,30.0,-100.00,WNW,302,5.7,22.8,86,0.00,n/a,n/a,-99.99,Henriksen +1-Wire,2013-01-20 20:30:00,
2013-01-20 15:40:00,33.7,30.0,-100.00,WNW,283,3.0,12.5,86,0.00,n/a,n/a,-99.99,Henriksen +1-Wire,2013-01-20 20:40:00,
2013-01-20 15:50:00,33.7,30.0,-100.00,WNW,284,5.3,16.6,86,0.00,n/a,n/a,-99.99,Henriksen +1-Wire,2013-01-20 20:50:00,
2013-01-20 16:00:00,33.7,30.0,-100.00,WNW,290,4.4,14.5,86,0.00,n/a,n/a,-99.99,Henriksen +1-Wire,2013-01-20 21:00:00,
2013-01-20 16:10:00,33.7,30.0,-100.00,WNW,289,4.3,13.5,86,0.00,n/a,n/a,-99.99,Henriksen +1-Wire,2013-01-20 21:10:00,
2013-01-20 16:20:00,33.7,30.0,-100.00,WNW,289,2.7,14.7,86,0.00,n/a,n/a,-99.99,Henriksen +1-Wire,2013-01-20 21:20:00,
2013-01-20 16:30:00,33.7,30.0,-100.00,WNW,289,5.5,12.5,86,0.00,n/a,n/a,-99.99,Henriksen +1-Wire,2013-01-20 21:30:00,
2013-01-20 16:40:00,33.7,30.0,-100.00,WNW,297,2.6,11.3,86,0.00,n/a,n/a,-99.99,Henriksen +1-Wire,2013-01-20 21:40:00,
2013-01-20 16:50:00,33.7,30.0,-100.00,NW,319,2.8,11.4,86,0.00,n/a,n/a,-99.99,Henriksen +1-Wire,2013-01-20 21:50:00,
2013-01-20 17:00:00,33.7,30.0,-100.00,WNW,288,6.1,17.5,86,0.00,n/a,n/a,-99.99,Henriksen +1-Wire,2013-01-20 22:00:00,
2013-01-20 17:10:00,33.7,30.0,-100.00,WNW,288,2.1,25.9,86,0.00,n/a,n/a,-99.99,Henriksen +1-Wire,2013-01-20 22:10:00,
2013-01-20 17:20:00,33.7,30.0,-100.00,WNW,296,5.0,14.4,86,0.00,n/a,n/a,-99.99,Henriksen +1-Wire,2013-01-20 22:20:00,
2013-01-20 17:30:00,33.7,30.0,-100.00,WNW,290,6.5,15.4,86,0.00,n/a,n/a,-99.99,Henriksen +1-Wire,2013-01-20 22:30:00,
2013-01-20 17:40:00,33.7,30.0,-100.00,WNW,288,6.7,20.8,86,0.00,n/a,n/a,-99.99,Henriksen +1-Wire,2013-01-20 22:40:00,
2013-01-20 17:50:00,33.7,30.0,-100.00,WNW,288,4.6,16.5,86,0.00,n/a,n/a,-99.99,Henriksen +1-Wire,2013-01-20 22:50:00,
2013-01-20 18:00:00,33.7,30.0,-100.00,WNW,286,8.4,17.6,86,0.00,n/a,n/a,-99.99,Henriksen +1-Wire,2013-01-20 23:00:00,
2013-01-20 18:10:00,33.7,30.0,-100.00,West,264,2.9,18.4,86,0.00,n/a,n/a,-99.99,Henriksen +1-Wire,2013-01-20 23:10:00,
2013-01-20 18:20:00,33.7,30.0,-100.00,NW,307,4.3,17.6,86,0.00,n/a,n/a,-99.99,Henriksen +1-Wire,2013-01-20 23:20:00,
2013-01-20 18:30:00,33.7,30.0,-100.00,WNW,294,3.0,13.5,86,0.00,n/a,n/a,-99.99,Henriksen +1-Wire,2013-01-20 23:30:00,
2013-01-20 18:40:00,33.7,30.0,-100.00,WNW,294,3.5,10.3,86,0.00,n/a,n/a,-99.99,Henriksen +1-Wire,2013-01-20 23:40:00,
2013-01-20 18:50:00,33.7,30.0,-100.00,WNW,293,4.8,16.5,86,0.00,n/a,n/a,-99.99,Henriksen +1-Wire,2013-01-20 23:50:00,
2013-01-20 19:00:00,33.7,30.0,-100.00,WNW,289,5.1,12.3,86,0.00,n/a,n/a,-99.99,Henriksen +1-Wire,2013-01-21 00:00:00,
2013-01-20 19:10:00,33.7,30.0,-100.00,WNW,290,6.0,14.5,86,0.00,n/a,n/a,-99.99,Henriksen +1-Wire,2013-01-21 00:10:00,
2013-01-20 19:20:00,33.7,30.0,-100.00,West,279,3.8,8.4,86,0.00,n/a,n/a,-99.99,Henriksen +1-Wire,2013-01-21 00:20:00,
2013-01-20 19:30:00,33.7,30.0,-100.00,WNW,289,5.5,15.6,86,0.00,n/a,n/a,-99.99,Henriksen +1-Wire,2013-01-21 00:30:00,
2013-01-20 19:40:00,33.7,30.0,-100.00,WNW,291,3.7,12.5,86,0.00,n/a,n/a,-99.99,Henriksen +1-Wire,2013-01-21 00:40:00,
2013-01-20 19:50:00,33.7,30.0,-100.00,WNW,298,0.9,6.3,86,0.00,n/a,n/a,-99.99,Henriksen +1-Wire,2013-01-21 00:50:00,
2013-01-20 20:00:00,33.7,30.0,-100.00,WNW,295,2.6,8.3,86,0.00,n/a,n/a,-99.99,Henriksen +1-Wire,2013-01-21 01:00:00,
2013-01-20 20:10:00,33.7,30.0,-100.00,WNW,293,6.6,14.5,86,0.00,n/a,n/a,-99.99,Henriksen +1-Wire,2013-01-21 01:10:00,
2013-01-20 20:20:00,33.7,30.0,-100.00,WNW,296,4.5,9.2,86,0.00,n/a,n/a,-99.99,Henriksen +1-Wire,2013-01-21 01:20:00,
2013-01-20 20:30:00,33.7,30.0,-100.00,West,278,2.9,10.4,86,0.00,n/a,n/a,-99.99,Henriksen +1-Wire,2013-01-21 01:30:00,
2013-01-20 20:40:00,33.7,30.0,-100.00,WNW,287,1.6,10.5,86,0.00,n/a,n/a,-99.99,Henriksen +1-Wire,2013-01-21 01:40:00,
2013-01-20 20:50:00,33.7,30.0,-100.00,WNW,288,4.3,10.4,86,0.00,n/a,n/a,-99.99,Henriksen +1-Wire,2013-01-21 01:50:00,
2013-01-20 21:00:00,33.7,30.0,-100.00,WNW,299,3.2,9.3,86,0.00,n/a,n/a,-99.99,Henriksen +1-Wire,2013-01-21 02:00:00,
2013-01-20 21:10:00,33.7,30.0,-100.00,WNW,298,1.7,7.3,86,0.00,n/a,n/a,-99.99,Henriksen +1-Wire,2013-01-21 02:10:00,
2013-01-20 21:20:00,33.7,30.0,-100.00,WNW,287,5.2,11.6,86,0.00,n/a,n/a,-99.99,Henriksen +1-Wire,2013-01-21 02:20:00,
2013-01-20 21:30:00,33.7,30.0,-100.00,WNW,291,3.1,7.3,86,0.00,n/a,n/a,-99.99,Henriksen +1-Wire,2013-01-21 02:30:00,
2013-01-20 21:40:00,33.7,30.0,-100.00,WNW,298,0.9,6.3,86,0.00,n/a,n/a,-99.99,Henriksen +1-Wire,2013-01-21 02:40:00,
2013-01-20 21:50:00,33.7,30.0,-100.00,West,278,0.5,8.3,86,0.00,n/a,n/a,-99.99,Henriksen +1-Wire,2013-01-21 02:50:00,
2013-01-20 22:00:00,33.7,30.0,-100.00,WSW,254,2.6,9.4,86,0.00,n/a,n/a,-99.99,Henriksen +1-Wire,2013-01-21 03:00:00,
2013-01-20 22:10:00,33.7,30.0,-100.00,NW,309,4.2,10.4,86,0.00,n/a,n/a,-99.99,Henriksen +1-Wire,2013-01-21 03:10:00,
2013-01-20 22:20:00,33.7,30.0,-100.00,WNW,286,3.1,14.5,86,0.00,n/a,n/a,-99.99,Henriksen +1-Wire,2013-01-21 03:20:00,
2013-01-20 22:30:00,33.7,30.0,-100.00,WNW,302,4.2,11.3,86,0.00,n/a,n/a,-99.99,Henriksen +1-Wire,2013-01-21 03:30:00,
2013-01-20 22:40:00,33.7,30.0,-100.00,WNW,291,3.8,12.4,86,0.00,n/a,n/a,-99.99,Henriksen +1-Wire,2013-01-21 03:40:00,
2013-01-20 22:50:00,33.7,30.0,-100.00,WNW,297,2.8,8.3,86,0.00,n/a,n/a,-99.99,Henriksen +1-Wire,2013-01-21 03:50:00,
2013-01-20 23:00:00,33.7,30.0,-100.00,WNW,291,4.1,9.3,86,0.00,n/a,n/a,-99.99,Henriksen +1-Wire,2013-01-21 04:00:00,
2013-01-20 23:10:00,33.7,30.0,-100.00,WNW,298,4.5,21.6,86,0.00,n/a,n/a,-99.99,Henriksen +1-Wire,2013-01-21 04:10:00,
2013-01-20 23:20:00,33.7,30.0,-100.00,NW,311,2.7,7.2,86,0.00,n/a,n/a,-99.99,Henriksen +1-Wire,2013-01-21 04:20:00,
2013-01-20 23:30:00,33.7,30.0,-100.00,NW,319,3.4,11.4,86,0.00,n/a,n/a,-99.99,Henriksen +1-Wire,2013-01-21 04:30:00,
2013-01-20 23:40:00,33.7,30.0,-100.00,North,357,1.0,10.4,86,0.00,n/a,n/a,-99.99,Henriksen +1-Wire,2013-01-21 04:40:00,
2013-01-20 23:50:00,33.7,30.0,-100.00,NW,311,2.3,7.3,86,0.00,n/a,n/a,-99.99,Henriksen +1-Wire,2013-01-21 04:50:00,